Danville, IN

12:54 AM EDT on June 21, 2018 (GMT -0400)
Vermilion County

Weather History for KDNV - August, 2011

Change the Weather History Date:

Sunday, August 21, 2011

  Actual Average (KLAF) Record (KLAF)
Temperature  
Mean Temperature 72 °F -  
Max Temperature 82 °F 83 °F 98 °F (1983)
Min Temperature 62 °F 61 °F 50 °F (2015)
Cooling Degree Days 7    
Growing Degree Days 22 (Base 50)    
Moisture  
Dew Point 64 °F    
Average Humidity 78    
Maximum Humidity 100    
Minimum Humidity 48    
Precipitation  
Precipitation 0.28 in - - ()
Sea Level Pressure  
Sea Level Pressure 29.94 in    
Wind  
Wind Speed 3 mph (North)    
Max Wind Speed 13 mph    
Max Gust Speed 20 mph    
Visibility 8 miles    
Events Rain    
Averages and records for this station are not official NWS values.
T = Trace of Precipitation, MM = Missing Value Source: NWS Daily Summary

Daily Weather History Graph

Daily Weather History Graph

Search for Another Location

Airport or City:

Astronomy

Aug. 21, 2011 Rise Set
Actual Time 6:07 AM CDT 7:39 PM CDT
Civil Twilight 5:38 AM CDT 8:07 PM CDT
Nautical Twilight 5:03 AM CDT 8:42 PM CDT
Astronomical Twilight 4:27 AM CDT 9:18 PM CDT
Moon 11:27 PM CDT 1:44 PM CDT
Length of Visible Light 14h 29m
Length of Day
13h 32m
Waning Gibbous, 52% of the Moon is Illuminated
Aug 21
Waning Gibbous
Aug 21
Last Quarter
Aug 28
New
Sep 4
First Quarter
Sep 12
Full

Hourly Weather History & Observations

Time (CDT) Temp. Heat Index Dew Point Humidity Pressure Visibility Wind Dir Wind Speed Gust Speed Precip Events Conditions
12:15 AM 66.2 °F - 64.4 °F 94% 29.93 in 5.0 mi Calm Calm - N/A Rain Rain
12:35 AM 66.2 °F - 64.4 °F 94% 29.93 in 4.0 mi Calm Calm - N/A Rain Heavy Rain
12:55 AM 68.0 °F - 66.2 °F 94% 29.93 in 5.0 mi Calm Calm - N/A Rain Heavy Rain
1:15 AM 69.8 °F - 66.2 °F 88% 29.93 in 2.5 mi West 12.7 mph 19.6 mph 0.06 in Rain Light Rain
1:35 AM 69.8 °F - 64.4 °F 83% 29.93 in 3.0 mi North 9.2 mph 12.7 mph 0.27 in Rain Heavy Rain
1:55 AM 68.0 °F - 64.4 °F 88% 29.91 in 10.0 mi North 4.6 mph - N/A Rain Light Rain
2:15 AM 66.2 °F - 62.6 °F 88% 29.92 in 10.0 mi North 6.9 mph - N/A Rain Rain
2:35 AM 64.4 °F - 62.6 °F 94% 29.90 in 10.0 mi Calm Calm - 0.01 in Rain Rain
2:55 AM 64.4 °F - 62.6 °F 94% 29.90 in 10.0 mi Calm Calm - 0.01 in Rain Rain
3:15 AM 64.4 °F - 64.4 °F 100% 29.90 in 7.0 mi SW 3.5 mph - N/A Rain Rain
3:35 AM 64.4 °F - 62.6 °F 94% 29.90 in 5.0 mi Calm Calm - N/A Rain Rain
3:55 AM 64.4 °F - 62.6 °F 94% 29.90 in 7.0 mi East 3.5 mph - N/A Rain Rain
4:15 AM 64.4 °F - 62.6 °F 94% 29.90 in 7.0 mi Calm Calm - N/A Rain Rain
4:35 AM 62.6 °F - 62.6 °F 100% 29.90 in 10.0 mi Calm Calm - N/A Rain Light Rain
4:55 AM 62.6 °F - 62.6 °F 100% 29.91 in 7.0 mi Calm Calm - N/A Rain Rain
5:15 AM 62.6 °F - 62.6 °F 100% 29.91 in 7.0 mi Calm Calm - N/A Rain Rain
5:35 AM 62.6 °F - 60.8 °F 94% 29.92 in 4.0 mi Calm Calm - N/A Rain Rain
5:55 AM 62.6 °F - 62.6 °F 100% 29.92 in 5.0 mi Calm Calm - N/A Rain Heavy Rain
6:15 AM 62.6 °F - 62.6 °F 100% 29.93 in 5.0 mi NNW 4.6 mph - N/A Rain Rain
6:35 AM 62.6 °F - 62.6 °F 100% 29.94 in 5.0 mi Calm Calm - N/A Rain Heavy Rain
6:55 AM 64.4 °F - 64.4 °F 100% 29.95 in 5.0 mi North 3.5 mph - N/A Rain Rain
7:15 AM 64.4 °F - 64.4 °F 100% 29.95 in 7.0 mi Calm Calm - N/A Rain Rain
7:35 AM 66.2 °F - 64.4 °F 94% 29.95 in 7.0 mi Calm Calm - N/A Rain Rain
7:55 AM 68.0 °F - 66.2 °F 94% 29.96 in 7.0 mi North 3.5 mph - N/A Rain Rain
8:15 AM 69.8 °F - 68.0 °F 94% 29.96 in 5.0 mi NNE 3.5 mph - N/A Rain Rain
8:35 AM 69.8 °F - 68.0 °F 94% 29.96 in 7.0 mi Calm Calm - N/A Rain Rain
8:55 AM 71.6 °F - 69.8 °F 94% 29.96 in 7.0 mi NE 4.6 mph - N/A Rain Rain
9:15 AM 73.4 °F - 69.8 °F 88% 29.95 in 7.0 mi NE 4.6 mph - N/A Rain Rain
9:35 AM 75.2 °F - 69.8 °F 83% 29.96 in 7.0 mi ENE 3.5 mph - N/A Rain Rain
9:55 AM 73.4 °F - 69.8 °F 88% 29.96 in 7.0 mi NE 4.6 mph - N/A Rain Heavy Rain
10:15 AM 77.0 °F - 69.8 °F 78% 29.96 in 10.0 mi NE 3.5 mph - N/A Rain Heavy Rain
10:35 AM 77.0 °F - 68.0 °F 74% 29.96 in 7.0 mi Calm Calm - N/A Rain Heavy Rain
10:55 AM 77.0 °F - 68.0 °F 74% 29.96 in 7.0 mi Calm Calm - N/A Rain Rain
11:15 AM 77.0 °F - 68.0 °F 74% 29.96 in 10.0 mi Calm Calm - N/A Rain Rain
11:35 AM 78.8 °F - 68.0 °F 69% 29.96 in 10.0 mi Calm Calm - N/A Rain Rain
11:55 AM 78.8 °F - 68.0 °F 69% 29.96 in 10.0 mi Calm Calm - N/A Rain Rain
12:15 PM 78.8 °F - 68.0 °F 69% 29.95 in 10.0 mi Calm Calm - N/A Rain Rain
12:35 PM 80.6 °F 83.2 °F 68.0 °F 65% 29.95 in 10.0 mi North 3.5 mph - N/A Rain Rain
12:55 PM 75.2 °F - 68.0 °F 78% 29.95 in 10.0 mi North 8.1 mph - N/A Rain Rain
1:15 PM 80.6 °F 83.2 °F 68.0 °F 65% 29.94 in 10.0 mi North 6.9 mph - N/A Rain Rain
1:35 PM 80.6 °F 82.7 °F 66.2 °F 61% 29.94 in 10.0 mi NNW 8.1 mph - N/A Rain Rain
2:15 PM 80.6 °F 83.2 °F 68.0 °F 65% 29.94 in 10.0 mi North 4.6 mph - N/A Rain Rain
2:35 PM 80.6 °F 82.3 °F 64.4 °F 58% 29.93 in 10.0 mi North 6.9 mph - N/A Rain Rain
2:55 PM 80.6 °F 82.3 °F 64.4 °F 58% 29.93 in 10.0 mi NNW 11.5 mph - N/A Rain Heavy Rain
3:15 PM 82.4 °F 83.9 °F 64.4 °F 54% 29.93 in 10.0 mi NNW 12.7 mph 17.3 mph N/A Rain Rain
3:35 PM 82.4 °F 82.9 °F 60.8 °F 48% 29.94 in 10.0 mi NNW 11.5 mph 16.1 mph N/A Rain Rain
4:15 PM 80.6 °F 81.1 °F 59.0 °F 48% 29.93 in 10.0 mi NNW 10.4 mph - N/A Rain Heavy Rain
4:35 PM 80.6 °F 81.1 °F 59.0 °F 48% 29.94 in 10.0 mi NNW 5.8 mph - N/A Rain Rain
4:55 PM 80.6 °F 81.1 °F 59.0 °F 48% 29.94 in 10.0 mi North 10.4 mph - N/A Rain Rain
5:15 PM 80.6 °F 81.1 °F 59.0 °F 48% 29.94 in 10.0 mi NNW 5.8 mph - N/A Rain Rain
5:35 PM 80.6 °F 81.5 °F 60.8 °F 51% 29.94 in 10.0 mi North 9.2 mph - N/A Rain Heavy Rain
5:55 PM 80.6 °F 81.5 °F 60.8 °F 51% 29.94 in 10.0 mi North 8.1 mph - N/A Rain Rain
6:15 PM 78.8 °F - 60.8 °F 54% 29.95 in 7.0 mi NNW 9.2 mph - N/A Rain Rain
6:35 PM 78.8 °F - 59.0 °F 51% 29.95 in 10.0 mi North 9.2 mph - N/A Rain Rain
6:55 PM 77.0 °F - 59.0 °F 54% 29.95 in 10.0 mi North 8.1 mph - N/A Rain Rain
7:15 PM 73.4 °F - 59.0 °F 61% 29.96 in 10.0 mi North 5.8 mph - N/A Rain Rain
7:35 PM 71.6 °F - 59.0 °F 64% 29.96 in 10.0 mi North 5.8 mph - N/A Rain Rain
7:55 PM 69.8 °F - 59.0 °F 68% 29.97 in 10.0 mi North 5.8 mph - N/A Rain Rain
8:15 PM 68.0 °F - 59.0 °F 73% 29.98 in 10.0 mi NNW 4.6 mph - N/A Rain Rain
8:35 PM 66.2 °F - 59.0 °F 78% 29.98 in 10.0 mi North 5.8 mph - N/A Rain Rain
8:55 PM 64.4 °F - 59.0 °F 83% 29.99 in 10.0 mi North 5.8 mph - N/A Rain Rain
9:15 PM 62.6 °F - 59.0 °F 88% 29.99 in 10.0 mi North 5.8 mph - N/A Rain Rain
9:35 PM 62.6 °F - 59.0 °F 88% 30.00 in 10.0 mi NNW 5.8 mph - N/A Rain Rain
9:55 PM 62.6 °F - 59.0 °F 88% 30.00 in 7.0 mi NNW 4.6 mph - N/A Rain Rain
10:15 PM 62.6 °F - 59.0 °F 88% 30.00 in 10.0 mi NNW 5.8 mph - N/A Rain Rain
10:35 PM 62.6 °F - 59.0 °F 88% 30.01 in 10.0 mi NNW 5.8 mph - N/A Rain Heavy Rain
10:55 PM 60.8 °F - 59.0 °F 94% 30.01 in 10.0 mi NNW 4.6 mph - N/A Rain Rain
11:15 PM 60.8 °F - 57.2 °F 88% 30.01 in 7.0 mi NNW 3.5 mph - N/A Rain Rain
11:35 PM 60.8 °F - 57.2 °F 88% 30.02 in 7.0 mi NW 4.6 mph - N/A Rain Rain
11:55 PM 59.0 °F - 57.2 °F 94% 30.02 in 10.0 mi NW 3.5 mph - N/A Rain Rain